This is the latest recevied weather packets stored in our database for station/object OE3BCB-14. If no packets are shown the sender has not sent any weather packets the latest 10 day(s).
| Time | Temp. | Humidity | Pressure | Rain* | Wind** | Luminosity | Snow |
|---|---|---|---|---|---|---|---|
| 1778015996 | 21.67° C | 37% | 1007.4 hPa | - | - | 0 W/m² | - |
| 1778015694 | 21.67° C | 37% | 1007.3 hPa | - | - | 0 W/m² | - |
| 1778015391 | 21.67° C | 37% | 1007.1 hPa | - | - | 0 W/m² | - |
| 1778015089 | 21.67° C | 37% | 1007.2 hPa | - | - | 0 W/m² | - |
| 1778014787 | 21.67° C | 36% | 1007.1 hPa | - | - | 0 W/m² | - |
| 1778014484 | 21.67° C | 36% | 1007 hPa | - | - | 0 W/m² | - |
| 1778014182 | 21.67° C | 36% | 1007 hPa | - | - | 0 W/m² | - |
| 1778013879 | 21.11° C | 36% | 1007 hPa | - | - | 0 W/m² | - |
| 1778013275 | 20.56° C | 36% | 1006.8 hPa | - | - | 0 W/m² | - |
| 1778012972 | 20° C | 36% | 1006.8 hPa | - | - | 0 W/m² | - |
| 1778012670 | 19.44° C | 35% | 1006.7 hPa | - | - | 0 W/m² | - |
| 1778012367 | 19.44° C | 35% | 1006.5 hPa | - | - | 0 W/m² | - |
| 1778012065 | 19.44° C | 34% | 1006.4 hPa | - | - | 0 W/m² | - |
| 1778011762 | 20° C | 34% | 1006.3 hPa | - | - | 0 W/m² | - |
| 1778011460 | 20° C | 34% | 1006.1 hPa | - | - | 0 W/m² | - |
| 1778011158 | 20° C | 34% | 1006 hPa | - | - | 0 W/m² | - |
| 1778010855 | 20° C | 33% | 1005.9 hPa | - | - | 0 W/m² | - |
| 1778010553 | 20° C | 33% | 1005.8 hPa | - | - | 0 W/m² | - |
| 1778010250 | 20.56° C | 33% | 1005.7 hPa | - | - | 0 W/m² | - |
| 1778009948 | 20.56° C | 32% | 1005.7 hPa | - | - | 0 W/m² | - |
| 1778009645 | 20.56° C | 32% | 1005.7 hPa | - | - | 0 W/m² | - |
| 1778008738 | 21.11° C | 31% | 1005.7 hPa | - | - | 0 W/m² | - |
| 1778008436 | 21.11° C | 30% | 1005.6 hPa | - | - | 0 W/m² | - |
| 1778008134 | 21.11° C | 30% | 1005.6 hPa | - | - | 0 W/m² | - |
| 1778007831 | 21.67° C | 30% | 1005.5 hPa | - | - | 0 W/m² | - |
* Rain since midnight (hover to see other rain measurements)
** Current wind speed in m/s (hover to see current wind gust speed)